owner,sensor,date,latitude,longitude,vertical_datum,sea_water_practical_salinity,qcFlag 
SCCF RECON,ioos:station:SCCF:16:1,2009-07-01T00:00:00Z,26.4345,-81.9647,2.584,36.18,1111122 
SCCF RECON,ioos:station:SCCF:16:1,2009-07-01T01:00:00Z,26.4345,-81.9647,2.613,36.13,1111122 
SCCF RECON,ioos:station:SCCF:16:1,2009-07-01T02:00:00Z,26.4345,-81.9647,2.569,36.18,1111122 
SCCF RECON,ioos:station:SCCF:16:1,2009-07-01T03:00:00Z,26.4345,-81.9647,2.559,36.24,1111122 
SCCF RECON,ioos:station:SCCF:16:1,2009-07-01T04:00:00Z,26.4345,-81.9647,2.608,36.38,1111122 
SCCF RECON,ioos:station:SCCF:16:1,2009-07-01T05:00:00Z,26.4345,-81.9647,2.568,36.38,1111122 
SCCF RECON,ioos:station:SCCF:16:1,2009-07-01T06:00:00Z,26.4345,-81.9647,2.459,36.44,1111122 
SCCF RECON,ioos:station:SCCF:16:1,2009-07-01T07:00:00Z,26.4345,-81.9647,2.524,36.47,1111122 
SCCF RECON,ioos:station:SCCF:16:1,2009-07-01T08:00:00Z,26.4345,-81.9647,2.622,36.49,1111122 
SCCF RECON,ioos:station:SCCF:16:1,2009-07-01T09:00:00Z,26.4345,-81.9647,2.664,36.5,1111122 
SCCF RECON,ioos:station:SCCF:16:1,2009-07-01T10:00:00Z,26.4345,-81.9647,2.716,36.45,1111122 
SCCF RECON,ioos:station:SCCF:16:1,2009-07-01T11:00:00Z,26.4345,-81.9647,2.787,36.41,1111122 
SCCF RECON,ioos:station:SCCF:16:1,2009-07-01T12:00:00Z,26.4345,-81.9647,2.867,36.31,1111122 
SCCF RECON,ioos:station:SCCF:16:1,2009-07-01T13:00:00Z,26.4345,-81.9647,2.909,36.26,1111122 
SCCF RECON,ioos:station:SCCF:16:1,2009-07-01T14:00:00Z,26.4345,-81.9647,2.885,36.25,1111122 
SCCF RECON,ioos:station:SCCF:16:1,2009-07-01T15:00:00Z,26.4345,-81.9647,2.732,36.29,1111122 
SCCF RECON,ioos:station:SCCF:16:1,2009-07-01T16:00:00Z,26.4345,-81.9647,2.614,36.37,1111122 
SCCF RECON,ioos:station:SCCF:16:1,2009-07-01T17:00:00Z,26.4345,-81.9647,2.443,36.4,1111122 
SCCF RECON,ioos:station:SCCF:16:1,2009-07-01T18:00:00Z,26.4345,-81.9647,2.251,36.47,1111122 
SCCF RECON,ioos:station:SCCF:16:1,2009-07-01T19:00:00Z,26.4345,-81.9647,2.167,36.44,1111122 
SCCF RECON,ioos:station:SCCF:16:1,2009-07-01T20:00:00Z,26.4345,-81.9647,2.181,36.4,1111122 
SCCF RECON,ioos:station:SCCF:16:1,2009-07-01T21:00:00Z,26.4345,-81.9647,2.319,36.28,1111122 
SCCF RECON,ioos:station:SCCF:16:1,2009-07-01T22:00:00Z,26.4345,-81.9647,2.399,36.3,1111122 
SCCF RECON,ioos:station:SCCF:16:1,2009-07-01T23:00:00Z,26.4345,-81.9647,2.481,36.34,1111122 
SCCF RECON,ioos:station:SCCF:16:1,2009-07-02T00:00:00Z,26.4345,-81.9647,2.6,36.52,1111122 
SCCF RECON,ioos:station:SCCF:16:1,2009-07-02T01:00:00Z,26.4345,-81.9647,2.552,36.48,1111122 
SCCF RECON,ioos:station:SCCF:16:1,2009-07-02T02:00:00Z,26.4345,-81.9647,2.56,36.48,1111122 
SCCF RECON,ioos:station:SCCF:16:1,2009-07-02T03:00:00Z,26.4345,-81.9647,2.569,36.43,1111122 
SCCF RECON,ioos:station:SCCF:16:1,2009-07-02T04:00:00Z,26.4345,-81.9647,2.563,36.33,1111122 
SCCF RECON,ioos:station:SCCF:16:1,2009-07-02T05:00:00Z,26.4345,-81.9647,2.641,35.56,1111122 
SCCF RECON,ioos:station:SCCF:16:1,2009-07-02T06:00:00Z,26.4345,-81.9647,2.723,35.75,1111122 
SCCF RECON,ioos:station:SCCF:16:1,2009-07-02T07:00:00Z,26.4345,-81.9647,2.609,35.65,1111122 
SCCF RECON,ioos:station:SCCF:16:1,2009-07-02T08:00:00Z,26.4345,-81.9647,2.612,35.6,1111122 
SCCF RECON,ioos:station:SCCF:16:1,2009-07-02T09:00:00Z,26.4345,-81.9647,2.668,35.66,1111122 
SCCF RECON,ioos:station:SCCF:16:1,2009-07-02T10:00:00Z,26.4345,-81.9647,2.691,35.6,1111122 
SCCF RECON,ioos:station:SCCF:16:1,2009-07-02T11:00:00Z,26.4345,-81.9647,2.793,35.48,1111122 
SCCF RECON,ioos:station:SCCF:16:1,2009-07-02T12:00:00Z,26.4345,-81.9647,2.848,35.43,1111122 
SCCF RECON,ioos:station:SCCF:16:1,2009-07-02T13:00:00Z,26.4345,-81.9647,2.897,35.36,1111122 
SCCF RECON,ioos:station:SCCF:16:1,2009-07-02T14:00:00Z,26.4345,-81.9647,2.879,35.21,1111122 
SCCF RECON,ioos:station:SCCF:16:1,2009-07-02T15:00:00Z,26.4345,-81.9647,2.802,35.19,1111122 
SCCF RECON,ioos:station:SCCF:16:1,2009-07-02T16:00:00Z,26.4345,-81.9647,2.702,35.06,1111122 
SCCF RECON,ioos:station:SCCF:16:1,2009-07-02T17:00:00Z,26.4345,-81.9647,2.534,35.48,1111122 
SCCF RECON,ioos:station:SCCF:16:1,2009-07-02T18:00:00Z,26.4345,-81.9647,2.319,35.7,1111122 
SCCF RECON,ioos:station:SCCF:16:1,2009-07-02T19:00:00Z,26.4345,-81.9647,2.202,35.77,1111122 
SCCF RECON,ioos:station:SCCF:16:1,2009-07-02T20:00:00Z,26.4345,-81.9647,2.058,35.62,1111122 
SCCF RECON,ioos:station:SCCF:16:1,2009-07-02T21:00:00Z,26.4345,-81.9647,2.067,35.28,1111122 
SCCF RECON,ioos:station:SCCF:16:1,2009-07-02T22:00:00Z,26.4345,-81.9647,2.209,34.48,1111122 
SCCF RECON,ioos:station:SCCF:16:1,2009-07-02T23:00:00Z,26.4345,-81.9647,2.306,34.41,1111122 
SCCF RECON,ioos:station:SCCF:16:1,2009-07-03T00:00:00Z,26.4345,-81.9647,2.415,34.79,1111122 
SCCF RECON,ioos:station:SCCF:16:1,2009-07-03T01:00:00Z,26.4345,-81.9647,2.416,35.19,1111122 
SCCF RECON,ioos:station:SCCF:16:1,2009-07-03T02:00:00Z,26.4345,-81.9647,2.467,35.77,1111122 
SCCF RECON,ioos:station:SCCF:16:1,2009-07-03T03:00:00Z,26.4345,-81.9647,2.553,35.8,1111122 
SCCF RECON,ioos:station:SCCF:16:1,2009-07-03T04:00:00Z,26.4345,-81.9647,2.655,35.89,1111122 
SCCF RECON,ioos:station:SCCF:16:1,2009-07-03T05:00:00Z,26.4345,-81.9647,2.623,36.01,1111122 
SCCF RECON,ioos:station:SCCF:16:1,2009-07-03T06:00:00Z,26.4345,-81.9647,2.584,36.06,1111122 
SCCF RECON,ioos:station:SCCF:16:1,2009-07-03T07:00:00Z,26.4345,-81.9647,2.603,36.09,1111122 
SCCF RECON,ioos:station:SCCF:16:1,2009-07-03T08:00:00Z,26.4345,-81.9647,2.505,35.84,1111122 
SCCF RECON,ioos:station:SCCF:16:1,2009-07-03T09:00:00Z,26.4345,-81.9647,2.503,35.85,1111122 
SCCF RECON,ioos:station:SCCF:16:1,2009-07-03T10:00:00Z,26.4345,-81.9647,2.688,35.42,1111122 
SCCF RECON,ioos:station:SCCF:16:1,2009-07-03T11:00:00Z,26.4345,-81.9647,2.78,36.0,1111122 
SCCF RECON,ioos:station:SCCF:16:1,2009-07-03T12:00:00Z,26.4345,-81.9647,2.794,36.11,1111122 
SCCF RECON,ioos:station:SCCF:16:1,2009-07-03T13:00:00Z,26.4345,-81.9647,2.817,36.13,1111122 
SCCF RECON,ioos:station:SCCF:16:1,2009-07-03T14:00:00Z,26.4345,-81.9647,2.836,36.06,1111122 
SCCF RECON,ioos:station:SCCF:16:1,2009-07-03T15:00:00Z,26.4345,-81.9647,2.819,36.01,1111122 
SCCF RECON,ioos:station:SCCF:16:1,2009-07-03T16:00:00Z,26.4345,-81.9647,2.718,35.97,1111122 
SCCF RECON,ioos:station:SCCF:16:1,2009-07-03T17:00:00Z,26.4345,-81.9647,2.585,35.89,1111122 
SCCF RECON,ioos:station:SCCF:16:1,2009-07-03T18:00:00Z,26.4345,-81.9647,2.444,35.64,1111122 
SCCF RECON,ioos:station:SCCF:16:1,2009-07-03T19:00:00Z,26.4345,-81.9647,2.28,35.21,1111122 
SCCF RECON,ioos:station:SCCF:16:1,2009-07-03T20:00:00Z,26.4345,-81.9647,2.119,34.64,1111122 
SCCF RECON,ioos:station:SCCF:16:1,2009-07-03T21:00:00Z,26.4345,-81.9647,1.993,33.11,1111122 
SCCF RECON,ioos:station:SCCF:16:1,2009-07-03T22:00:00Z,26.4345,-81.9647,1.998,31.94,1111122 
SCCF RECON,ioos:station:SCCF:16:1,2009-07-03T23:00:00Z,26.4345,-81.9647,2.099,31.34,1111122 
SCCF RECON,ioos:station:SCCF:16:1,2009-07-04T00:00:00Z,26.4345,-81.9647,2.294,31.42,1111122 
SCCF RECON,ioos:station:SCCF:16:1,2009-07-04T01:00:00Z,26.4345,-81.9647,2.407,32.74,1111122 
SCCF RECON,ioos:station:SCCF:16:1,2009-07-04T02:00:00Z,26.4345,-81.9647,2.459,34.17,1111122 
SCCF RECON,ioos:station:SCCF:16:1,2009-07-04T03:00:00Z,26.4345,-81.9647,2.558,35.12,1111122 
SCCF RECON,ioos:station:SCCF:16:1,2009-07-04T04:00:00Z,26.4345,-81.9647,2.674,35.49,1111122 
SCCF RECON,ioos:station:SCCF:16:1,2009-07-04T05:00:00Z,26.4345,-81.9647,2.635,35.76,1111122 
SCCF RECON,ioos:station:SCCF:16:1,2009-07-04T06:00:00Z,26.4345,-81.9647,2.593,35.84,1111122 
SCCF RECON,ioos:station:SCCF:16:1,2009-07-04T07:00:00Z,26.4345,-81.9647,2.609,35.83,1111122 
SCCF RECON,ioos:station:SCCF:16:1,2009-07-04T08:00:00Z,26.4345,-81.9647,2.562,35.83,1111122 
SCCF RECON,ioos:station:SCCF:16:1,2009-07-04T09:00:00Z,26.4345,-81.9647,2.556,35.83,1111122 
SCCF RECON,ioos:station:SCCF:16:1,2009-07-04T10:00:00Z,26.4345,-81.9647,2.57,35.87,1111122 
SCCF RECON,ioos:station:SCCF:16:1,2009-07-04T11:00:00Z,26.4345,-81.9647,2.683,35.96,1111122 
SCCF RECON,ioos:station:SCCF:16:1,2009-07-04T12:00:00Z,26.4345,-81.9647,2.718,35.98,1111122 
SCCF RECON,ioos:station:SCCF:16:1,2009-07-04T13:00:00Z,26.4345,-81.9647,2.782,36.09,1111122 
SCCF RECON,ioos:station:SCCF:16:1,2009-07-04T14:00:00Z,26.4345,-81.9647,2.84,36.17,1111122 
SCCF RECON,ioos:station:SCCF:16:1,2009-07-04T15:00:00Z,26.4345,-81.9647,2.854,36.19,1111122 
SCCF RECON,ioos:station:SCCF:16:1,2009-07-04T16:00:00Z,26.4345,-81.9647,2.808,36.18,1111122 
SCCF RECON,ioos:station:SCCF:16:1,2009-07-04T17:00:00Z,26.4345,-81.9647,2.713,36.08,1111122 
SCCF RECON,ioos:station:SCCF:16:1,2009-07-04T18:00:00Z,26.4345,-81.9647,2.586,36.03,1111122 
SCCF RECON,ioos:station:SCCF:16:1,2009-07-04T19:00:00Z,26.4345,-81.9647,2.393,35.34,1111122 
SCCF RECON,ioos:station:SCCF:16:1,2009-07-04T20:00:00Z,26.4345,-81.9647,2.174,32.8,1111122 
SCCF RECON,ioos:station:SCCF:16:1,2009-07-04T21:00:00Z,26.4345,-81.9647,1.975,32.77,1111122 
SCCF RECON,ioos:station:SCCF:16:1,2009-07-04T22:00:00Z,26.4345,-81.9647,1.906,31.03,1111122 
SCCF RECON,ioos:station:SCCF:16:1,2009-07-04T23:00:00Z,26.4345,-81.9647,1.955,29.56,1111122 
SCCF RECON,ioos:station:SCCF:16:1,2009-07-05T00:00:00Z,26.4345,-81.9647,2.132,29.46,1111122 
SCCF RECON,ioos:station:SCCF:16:1,2009-07-05T01:00:00Z,26.4345,-81.9647,2.278,29.4,1111122 
SCCF RECON,ioos:station:SCCF:16:1,2009-07-05T02:00:00Z,26.4345,-81.9647,2.432,31.51,1111122 
SCCF RECON,ioos:station:SCCF:16:1,2009-07-05T03:00:00Z,26.4345,-81.9647,2.52,35.23,1111122 
SCCF RECON,ioos:station:SCCF:16:1,2009-07-05T04:00:00Z,26.4345,-81.9647,2.636,35.7,1111122 
SCCF RECON,ioos:station:SCCF:16:1,2009-07-05T05:00:00Z,26.4345,-81.9647,2.681,35.81,1111122 
SCCF RECON,ioos:station:SCCF:16:1,2009-07-05T06:00:00Z,26.4345,-81.9647,2.647,35.98,1111122 
SCCF RECON,ioos:station:SCCF:16:1,2009-07-05T07:00:00Z,26.4345,-81.9647,2.622,36.02,1111122 
SCCF RECON,ioos:station:SCCF:16:1,2009-07-05T08:00:00Z,26.4345,-81.9647,2.62,36.05,1111122 
SCCF RECON,ioos:station:SCCF:16:1,2009-07-05T09:00:00Z,26.4345,-81.9647,2.598,36.08,1111122 
SCCF RECON,ioos:station:SCCF:16:1,2009-07-05T10:00:00Z,26.4345,-81.9647,2.558,36.09,1111122 
SCCF RECON,ioos:station:SCCF:16:1,2009-07-05T11:00:00Z,26.4345,-81.9647,2.595,36.11,1111122 
SCCF RECON,ioos:station:SCCF:16:1,2009-07-05T12:00:00Z,26.4345,-81.9647,2.689,36.1,1111122 
SCCF RECON,ioos:station:SCCF:16:1,2009-07-05T13:00:00Z,26.4345,-81.9647,2.854,36.15,1111122 
SCCF RECON,ioos:station:SCCF:16:1,2009-07-05T14:00:00Z,26.4345,-81.9647,2.958,36.22,1111122 
SCCF RECON,ioos:station:SCCF:16:1,2009-07-05T15:00:00Z,26.4345,-81.9647,2.955,36.25,1111122 
SCCF RECON,ioos:station:SCCF:16:1,2009-07-05T16:00:00Z,26.4345,-81.9647,2.951,36.24,1111122 
SCCF RECON,ioos:station:SCCF:16:1,2009-07-05T17:00:00Z,26.4345,-81.9647,2.82,36.21,1111122 
SCCF RECON,ioos:station:SCCF:16:1,2009-07-05T18:00:00Z,26.4345,-81.9647,2.677,36.17,1111122 
SCCF RECON,ioos:station:SCCF:16:1,2009-07-05T19:00:00Z,26.4345,-81.9647,2.511,36.02,1111122 
SCCF RECON,ioos:station:SCCF:16:1,2009-07-05T20:00:00Z,26.4345,-81.9647,2.344,35.75,1111122 
SCCF RECON,ioos:station:SCCF:16:1,2009-07-05T21:00:00Z,26.4345,-81.9647,2.198,34.27,1111122 
SCCF RECON,ioos:station:SCCF:16:1,2009-07-05T22:00:00Z,26.4345,-81.9647,2.025,33.11,1111122 
SCCF RECON,ioos:station:SCCF:16:1,2009-07-05T23:00:00Z,26.4345,-81.9647,1.958,31.61,1111122 
SCCF RECON,ioos:station:SCCF:16:1,2009-07-06T00:00:00Z,26.4345,-81.9647,2.064,30.81,1111122 
SCCF RECON,ioos:station:SCCF:16:1,2009-07-06T01:00:00Z,26.4345,-81.9647,2.26,30.68,1111122 
SCCF RECON,ioos:station:SCCF:16:1,2009-07-06T02:00:00Z,26.4345,-81.9647,2.439,31.19,1111122 
SCCF RECON,ioos:station:SCCF:16:1,2009-07-06T03:00:00Z,26.4345,-81.9647,2.534,34.53,1111122 
SCCF RECON,ioos:station:SCCF:16:1,2009-07-06T04:00:00Z,26.4345,-81.9647,2.631,35.2,1111122 
SCCF RECON,ioos:station:SCCF:16:1,2009-07-06T05:00:00Z,26.4345,-81.9647,2.71,35.7,1111122 
SCCF RECON,ioos:station:SCCF:16:1,2009-07-06T06:00:00Z,26.4345,-81.9647,2.749,35.89,1111122 
SCCF RECON,ioos:station:SCCF:16:1,2009-07-06T07:00:00Z,26.4345,-81.9647,2.687,35.94,1111122 
SCCF RECON,ioos:station:SCCF:16:1,2009-07-06T08:00:00Z,26.4345,-81.9647,2.65,36.01,1111122 
SCCF RECON,ioos:station:SCCF:16:1,2009-07-06T09:00:00Z,26.4345,-81.9647,2.666,36.04,1111122 
SCCF RECON,ioos:station:SCCF:16:1,2009-07-06T10:00:00Z,26.4345,-81.9647,2.637,36.08,1111122 
SCCF RECON,ioos:station:SCCF:16:1,2009-07-06T11:00:00Z,26.4345,-81.9647,2.599,36.07,1111122 
SCCF RECON,ioos:station:SCCF:16:1,2009-07-06T12:00:00Z,26.4345,-81.9647,2.66,35.81,1111122 
SCCF RECON,ioos:station:SCCF:16:1,2009-07-06T13:00:00Z,26.4345,-81.9647,2.768,36.0,1111122 
SCCF RECON,ioos:station:SCCF:16:1,2009-07-06T14:00:00Z,26.4345,-81.9647,2.902,36.19,1111122 
SCCF RECON,ioos:station:SCCF:16:1,2009-07-06T15:00:00Z,26.4345,-81.9647,2.978,36.29,1111122 
SCCF RECON,ioos:station:SCCF:16:1,2009-07-06T16:00:00Z,26.4345,-81.9647,3.014,36.35,1111122 
SCCF RECON,ioos:station:SCCF:16:1,2009-07-06T17:00:00Z,26.4345,-81.9647,2.922,36.33,1111122 
SCCF RECON,ioos:station:SCCF:16:1,2009-07-06T18:00:00Z,26.4345,-81.9647,2.804,36.3,1111122 
SCCF RECON,ioos:station:SCCF:16:1,2009-07-06T19:00:00Z,26.4345,-81.9647,2.659,36.28,1111122 
SCCF RECON,ioos:station:SCCF:16:1,2009-07-06T20:00:00Z,26.4345,-81.9647,2.498,36.17,1111122 
SCCF RECON,ioos:station:SCCF:16:1,2009-07-06T21:00:00Z,26.4345,-81.9647,2.305,35.62,1111122 
SCCF RECON,ioos:station:SCCF:16:1,2009-07-06T22:00:00Z,26.4345,-81.9647,2.13,34.5,1111122 
SCCF RECON,ioos:station:SCCF:16:1,2009-07-06T23:00:00Z,26.4345,-81.9647,1.977,33.47,1111122 
SCCF RECON,ioos:station:SCCF:16:1,2009-07-07T00:00:00Z,26.4345,-81.9647,1.977,31.94,1111122 
SCCF RECON,ioos:station:SCCF:16:1,2009-07-07T01:00:00Z,26.4345,-81.9647,2.087,31.29,1111122 
SCCF RECON,ioos:station:SCCF:16:1,2009-07-07T02:00:00Z,26.4345,-81.9647,2.299,32.44,1111122 
SCCF RECON,ioos:station:SCCF:16:1,2009-07-07T03:00:00Z,26.4345,-81.9647,2.46,33.9,1111122 
SCCF RECON,ioos:station:SCCF:16:1,2009-07-07T04:00:00Z,26.4345,-81.9647,2.581,35.41,1111122 
SCCF RECON,ioos:station:SCCF:16:1,2009-07-07T05:00:00Z,26.4345,-81.9647,2.668,35.59,1111122 
SCCF RECON,ioos:station:SCCF:16:1,2009-07-07T06:00:00Z,26.4345,-81.9647,2.704,35.9,1111122 
SCCF RECON,ioos:station:SCCF:16:1,2009-07-07T07:00:00Z,26.4345,-81.9647,2.661,36.2,1111122 
SCCF RECON,ioos:station:SCCF:16:1,2009-07-07T08:00:00Z,26.4345,-81.9647,2.623,36.38,1111122 
SCCF RECON,ioos:station:SCCF:16:1,2009-07-07T09:00:00Z,26.4345,-81.9647,2.658,36.4,1111122 
SCCF RECON,ioos:station:SCCF:16:1,2009-07-07T10:00:00Z,26.4345,-81.9647,2.649,36.43,1111122 
SCCF RECON,ioos:station:SCCF:16:1,2009-07-07T11:00:00Z,26.4345,-81.9647,2.627,36.44,1111122 
SCCF RECON,ioos:station:SCCF:16:1,2009-07-07T12:00:00Z,26.4345,-81.9647,2.631,36.42,1111122 
SCCF RECON,ioos:station:SCCF:16:1,2009-07-07T13:00:00Z,26.4345,-81.9647,2.712,36.37,1111122 
SCCF RECON,ioos:station:SCCF:16:1,2009-07-07T14:00:00Z,26.4345,-81.9647,2.825,36.3,1111122 
SCCF RECON,ioos:station:SCCF:16:1,2009-07-07T15:00:00Z,26.4345,-81.9647,2.949,36.21,1111122 
SCCF RECON,ioos:station:SCCF:16:1,2009-07-07T16:00:00Z,26.4345,-81.9647,3.032,36.32,1111122 
SCCF RECON,ioos:station:SCCF:16:1,2009-07-07T17:00:00Z,26.4345,-81.9647,2.99,36.49,1111122 
SCCF RECON,ioos:station:SCCF:16:1,2009-07-07T18:00:00Z,26.4345,-81.9647,2.909,36.57,1111122 
SCCF RECON,ioos:station:SCCF:16:1,2009-07-07T19:00:00Z,26.4345,-81.9647,2.788,36.51,1111122 
SCCF RECON,ioos:station:SCCF:16:1,2009-07-07T20:00:00Z,26.4345,-81.9647,2.612,36.31,1111122 
SCCF RECON,ioos:station:SCCF:16:1,2009-07-07T21:00:00Z,26.4345,-81.9647,2.377,36.05,1111122 
SCCF RECON,ioos:station:SCCF:16:1,2009-07-07T22:00:00Z,26.4345,-81.9647,2.169,35.01,1111122 
SCCF RECON,ioos:station:SCCF:16:1,2009-07-07T23:00:00Z,26.4345,-81.9647,2.004,34.44,1111122 
SCCF RECON,ioos:station:SCCF:16:1,2009-07-08T00:00:00Z,26.4345,-81.9647,1.985,32.39,1111122 
SCCF RECON,ioos:station:SCCF:16:1,2009-07-08T01:00:00Z,26.4345,-81.9647,2.083,32.18,1111122 
SCCF RECON,ioos:station:SCCF:16:1,2009-07-08T02:00:00Z,26.4345,-81.9647,2.199,32.44,1111122 
SCCF RECON,ioos:station:SCCF:16:1,2009-07-08T03:00:00Z,26.4345,-81.9647,2.304,32.85,1111122 
SCCF RECON,ioos:station:SCCF:16:1,2009-07-08T04:00:00Z,26.4345,-81.9647,2.46,34.6,1111122 
SCCF RECON,ioos:station:SCCF:16:1,2009-07-08T05:00:00Z,26.4345,-81.9647,2.631,35.06,1111122 
SCCF RECON,ioos:station:SCCF:16:1,2009-07-08T06:00:00Z,26.4345,-81.9647,2.689,35.58,1111122 
SCCF RECON,ioos:station:SCCF:16:1,2009-07-08T07:00:00Z,26.4345,-81.9647,2.715,36.03,1111122 
SCCF RECON,ioos:station:SCCF:16:1,2009-07-08T08:00:00Z,26.4345,-81.9647,2.675,36.22,1111122 
SCCF RECON,ioos:station:SCCF:16:1,2009-07-08T09:00:00Z,26.4345,-81.9647,2.602,36.28,1111122 
SCCF RECON,ioos:station:SCCF:16:1,2009-07-08T10:00:00Z,26.4345,-81.9647,2.588,36.26,1111122 
SCCF RECON,ioos:station:SCCF:16:1,2009-07-08T11:00:00Z,26.4345,-81.9647,2.553,36.09,1111122 
SCCF RECON,ioos:station:SCCF:16:1,2009-07-08T12:00:00Z,26.4345,-81.9647,2.562,35.95,1111122 
SCCF RECON,ioos:station:SCCF:16:1,2009-07-08T13:00:00Z,26.4345,-81.9647,2.624,35.99,1111122 
SCCF RECON,ioos:station:SCCF:16:1,2009-07-08T14:00:00Z,26.4345,-81.9647,2.744,36.18,1111122 
SCCF RECON,ioos:station:SCCF:16:1,2009-07-08T15:00:00Z,26.4345,-81.9647,2.835,36.35,1111122 
SCCF RECON,ioos:station:SCCF:16:1,2009-07-08T16:00:00Z,26.4345,-81.9647,2.947,36.35,1111122 
SCCF RECON,ioos:station:SCCF:16:1,2009-07-08T17:00:00Z,26.4345,-81.9647,3.033,36.37,1111122 
SCCF RECON,ioos:station:SCCF:16:1,2009-07-08T18:00:00Z,26.4345,-81.9647,2.983,36.37,1111122 
SCCF RECON,ioos:station:SCCF:16:1,2009-07-08T19:00:00Z,26.4345,-81.9647,2.851,36.35,1111122 
SCCF RECON,ioos:station:SCCF:16:1,2009-07-08T20:00:00Z,26.4345,-81.9647,2.696,36.22,1111122 
SCCF RECON,ioos:station:SCCF:16:1,2009-07-08T21:00:00Z,26.4345,-81.9647,2.55,36.29,1111122 
SCCF RECON,ioos:station:SCCF:16:1,2009-07-08T22:00:00Z,26.4345,-81.9647,2.36,35.56,1111122 
SCCF RECON,ioos:station:SCCF:16:1,2009-07-08T23:00:00Z,26.4345,-81.9647,2.144,34.67,1111122 
SCCF RECON,ioos:station:SCCF:16:1,2009-07-09T00:00:00Z,26.4345,-81.9647,2.037,33.91,1111122 
SCCF RECON,ioos:station:SCCF:16:1,2009-07-09T01:00:00Z,26.4345,-81.9647,2.011,32.17,1111122 
SCCF RECON,ioos:station:SCCF:16:1,2009-07-09T02:00:00Z,26.4345,-81.9647,2.093,31.62,1111122 
SCCF RECON,ioos:station:SCCF:16:1,2009-07-09T03:00:00Z,26.4345,-81.9647,2.272,31.45,1111122 
SCCF RECON,ioos:station:SCCF:16:1,2009-07-09T04:00:00Z,26.4345,-81.9647,2.453,33.97,1111122 
SCCF RECON,ioos:station:SCCF:16:1,2009-07-09T05:00:00Z,26.4345,-81.9647,2.626,35.3,1111122 
SCCF RECON,ioos:station:SCCF:16:1,2009-07-09T06:00:00Z,26.4345,-81.9647,2.694,35.91,1111122 
SCCF RECON,ioos:station:SCCF:16:1,2009-07-09T07:00:00Z,26.4345,-81.9647,2.661,36.01,1111122 
SCCF RECON,ioos:station:SCCF:16:1,2009-07-09T08:00:00Z,26.4345,-81.9647,2.645,36.11,1111122 
SCCF RECON,ioos:station:SCCF:16:1,2009-07-09T09:00:00Z,26.4345,-81.9647,2.565,36.14,1111122 
SCCF RECON,ioos:station:SCCF:16:1,2009-07-09T10:00:00Z,26.4345,-81.9647,2.558,36.1,1111122 
SCCF RECON,ioos:station:SCCF:16:1,2009-07-09T11:00:00Z,26.4345,-81.9647,2.551,35.89,1111122 
SCCF RECON,ioos:station:SCCF:16:1,2009-07-09T12:00:00Z,26.4345,-81.9647,2.515,34.73,1111122 
SCCF RECON,ioos:station:SCCF:16:1,2009-07-09T13:00:00Z,26.4345,-81.9647,2.539,34.72,1111122 
SCCF RECON,ioos:station:SCCF:16:1,2009-07-09T14:00:00Z,26.4345,-81.9647,2.639,34.13,1111122 
SCCF RECON,ioos:station:SCCF:16:1,2009-07-09T15:00:00Z,26.4345,-81.9647,2.784,34.17,1111122 
SCCF RECON,ioos:station:SCCF:16:1,2009-07-09T16:00:00Z,26.4345,-81.9647,2.885,34.39,1111122 
SCCF RECON,ioos:station:SCCF:16:1,2009-07-09T17:00:00Z,26.4345,-81.9647,2.911,34.74,1111122 
SCCF RECON,ioos:station:SCCF:16:1,2009-07-09T18:00:00Z,26.4345,-81.9647,2.919,35.12,1111122 
SCCF RECON,ioos:station:SCCF:16:1,2009-07-09T19:00:00Z,26.4345,-81.9647,2.897,35.06,1111122 
SCCF RECON,ioos:station:SCCF:16:1,2009-07-09T20:00:00Z,26.4345,-81.9647,2.819,35.14,1111122 
SCCF RECON,ioos:station:SCCF:16:1,2009-07-09T21:00:00Z,26.4345,-81.9647,2.652,35.13,1111122 
SCCF RECON,ioos:station:SCCF:16:1,2009-07-09T22:00:00Z,26.4345,-81.9647,2.44,35.08,1111122 
SCCF RECON,ioos:station:SCCF:16:1,2009-07-09T23:00:00Z,26.4345,-81.9647,2.273,34.19,1111122 
SCCF RECON,ioos:station:SCCF:16:1,2009-07-10T00:00:00Z,26.4345,-81.9647,2.083,33.77,1111122 
SCCF RECON,ioos:station:SCCF:16:1,2009-07-10T01:00:00Z,26.4345,-81.9647,1.944,32.34,1111122 
SCCF RECON,ioos:station:SCCF:16:1,2009-07-10T02:00:00Z,26.4345,-81.9647,2.016,29.9,1111122 
SCCF RECON,ioos:station:SCCF:16:1,2009-07-10T03:00:00Z,26.4345,-81.9647,2.236,30.59,1111122 
SCCF RECON,ioos:station:SCCF:16:1,2009-07-10T04:00:00Z,26.4345,-81.9647,2.418,32.53,1111122 
SCCF RECON,ioos:station:SCCF:16:1,2009-07-10T05:00:00Z,26.4345,-81.9647,2.575,34.05,1111122 
SCCF RECON,ioos:station:SCCF:16:1,2009-07-10T06:00:00Z,26.4345,-81.9647,2.645,34.55,1111122 
SCCF RECON,ioos:station:SCCF:16:1,2009-07-10T07:00:00Z,26.4345,-81.9647,2.682,35.17,1111122 
SCCF RECON,ioos:station:SCCF:16:1,2009-07-10T08:00:00Z,26.4345,-81.9647,2.703,34.19,1111122 
SCCF RECON,ioos:station:SCCF:16:1,2009-07-10T09:00:00Z,26.4345,-81.9647,2.659,34.74,1111122 
SCCF RECON,ioos:station:SCCF:16:1,2009-07-10T10:00:00Z,26.4345,-81.9647,2.572,33.56,1111122 
SCCF RECON,ioos:station:SCCF:16:1,2009-07-10T11:00:00Z,26.4345,-81.9647,2.428,33.83,1111122 
SCCF RECON,ioos:station:SCCF:16:1,2009-07-10T12:00:00Z,26.4345,-81.9647,2.484,33.76,1111122 
SCCF RECON,ioos:station:SCCF:16:1,2009-07-10T13:00:00Z,26.4345,-81.9647,2.496,33.82,1111122 
SCCF RECON,ioos:station:SCCF:16:1,2009-07-10T14:00:00Z,26.4345,-81.9647,2.527,33.73,1111122 
SCCF RECON,ioos:station:SCCF:16:1,2009-07-10T15:00:00Z,26.4345,-81.9647,2.643,33.84,1111122 
SCCF RECON,ioos:station:SCCF:16:1,2009-07-10T16:00:00Z,26.4345,-81.9647,2.771,34.18,1111122 
SCCF RECON,ioos:station:SCCF:16:1,2009-07-10T17:00:00Z,26.4345,-81.9647,2.843,34.64,1111122 
SCCF RECON,ioos:station:SCCF:16:1,2009-07-10T18:00:00Z,26.4345,-81.9647,2.902,34.73,1111122 
SCCF RECON,ioos:station:SCCF:16:1,2009-07-10T19:00:00Z,26.4345,-81.9647,2.877,34.64,1111122 
SCCF RECON,ioos:station:SCCF:16:1,2009-07-10T20:00:00Z,26.4345,-81.9647,2.817,34.54,1111122 
SCCF RECON,ioos:station:SCCF:16:1,2009-07-10T21:00:00Z,26.4345,-81.9647,2.719,34.5,1111122 
SCCF RECON,ioos:station:SCCF:16:1,2009-07-10T22:00:00Z,26.4345,-81.9647,2.57,34.53,1111122 
SCCF RECON,ioos:station:SCCF:16:1,2009-07-10T23:00:00Z,26.4345,-81.9647,2.45,34.58,1111122 
SCCF RECON,ioos:station:SCCF:16:1,2009-07-11T00:00:00Z,26.4345,-81.9647,2.276,34.15,1111122 
SCCF RECON,ioos:station:SCCF:16:1,2009-07-11T01:00:00Z,26.4345,-81.9647,2.127,33.65,1111122 
SCCF RECON,ioos:station:SCCF:16:1,2009-07-11T02:00:00Z,26.4345,-81.9647,2.075,32.4,1111122 
SCCF RECON,ioos:station:SCCF:16:1,2009-07-11T03:00:00Z,26.4345,-81.9647,2.184,31.34,1111122 
SCCF RECON,ioos:station:SCCF:16:1,2009-07-11T04:00:00Z,26.4345,-81.9647,2.37,30.98,1111122 
SCCF RECON,ioos:station:SCCF:16:1,2009-07-11T05:00:00Z,26.4345,-81.9647,2.51,31.57,1111122 
SCCF RECON,ioos:station:SCCF:16:1,2009-07-11T06:00:00Z,26.4345,-81.9647,2.619,32.91,1111122 
SCCF RECON,ioos:station:SCCF:16:1,2009-07-11T07:00:00Z,26.4345,-81.9647,2.705,33.91,1111122 
SCCF RECON,ioos:station:SCCF:16:1,2009-07-11T08:00:00Z,26.4345,-81.9647,2.735,34.17,1111122 
SCCF RECON,ioos:station:SCCF:16:1,2009-07-11T09:00:00Z,26.4345,-81.9647,2.716,34.15,1111122 
SCCF RECON,ioos:station:SCCF:16:1,2009-07-11T10:00:00Z,26.4345,-81.9647,2.657,34.17,1111122 
SCCF RECON,ioos:station:SCCF:16:1,2009-07-11T11:00:00Z,26.4345,-81.9647,2.588,34.12,1111122 
SCCF RECON,ioos:station:SCCF:16:1,2009-07-11T12:00:00Z,26.4345,-81.9647,2.402,33.95,1111122 
SCCF RECON,ioos:station:SCCF:16:1,2009-07-11T13:00:00Z,26.4345,-81.9647,2.403,34.21,1111122 
SCCF RECON,ioos:station:SCCF:16:1,2009-07-11T14:00:00Z,26.4345,-81.9647,2.47,33.55,1111122 
SCCF RECON,ioos:station:SCCF:16:1,2009-07-11T15:00:00Z,26.4345,-81.9647,2.57,33.86,1111122 
SCCF RECON,ioos:station:SCCF:16:1,2009-07-11T16:00:00Z,26.4345,-81.9647,2.758,33.84,1111122 